Location: Gazon
(48.1318°N, 1.2708°W)
Time: 00:53:09
(UTC+00:00)

Resurs 01 Rocket - Pass Details

Date: 18 September 2020
Orbit: 633 x 645 km, 98.0° (Epoch: 29 October)

Event Time Altitude Azimuth Distance (km) Brightness Sun altitude
Exits shadow 19:19:14 16° 87° (E) 1,677 3.2 -12.1°
Maximum altitude 19:20:48 19° 61° (ENE) 1,536 3.2 -12.4°
Drops below altitude 10° 19:23:55 10° 16° (NNE) 2,053 4.2 -12.9°
Sets 19:26:39 0° 359° (N) 2,967 5.3 -13.3°
